This is the latest recevied weather packets stored in our database for station/object N0MPM-4. If no packets are shown the sender has not sent any weather packets the latest 10 day(s).
| Time | Temp. | Humidity | Pressure | Rain* | Wind** | Luminosity | Snow |
|---|---|---|---|---|---|---|---|
| 1778085275 | 10.56° C | 41% | 1018.7 hPa | 0 mm | - | - | - |
| 1778084975 | 10.56° C | 40% | 1018.7 hPa | 0 mm | - | - | - |
| 1778084675 | 10° C | 43% | 1018.6 hPa | 0 mm | - | - | - |
| 1778084376 | 10.56° C | 40% | 1018.7 hPa | 0 mm | - | - | - |
| 1778084076 | 11.11° C | 40% | 1018.6 hPa | 0 mm | - | - | - |
| 1778083776 | 11.11° C | 39% | 1018.6 hPa | 0 mm | - | - | - |
| 1778083475 | 11.11° C | 43% | 1018.6 hPa | 0 mm | - | - | - |
| 1778083175 | 10.56° C | 47% | 1018.6 hPa | 0 mm | - | - | - |
| 1778082876 | 10.56° C | 40% | 1018.6 hPa | 0 mm | - | - | - |
| 1778082576 | 10.56° C | 43% | 1018.7 hPa | 0 mm | - | - | - |
| 1778082276 | 10.56° C | 43% | 1018.5 hPa | 0 mm | - | - | - |
| 1778081976 | 10.56° C | 45% | 1018.6 hPa | 0 mm | - | - | - |
| 1778081676 | 10.56° C | 46% | 1018.6 hPa | 0 mm | - | - | - |
| 1778081376 | 10.56° C | 42% | 1018.7 hPa | 0 mm | - | - | - |
| 1778081076 | 10° C | 45% | 1018.7 hPa | 0 mm | - | - | - |
| 1778080776 | 10° C | 44% | 1018.8 hPa | 0 mm | - | - | - |
| 1778080476 | 10° C | 43% | 1018.7 hPa | 0 mm | - | - | - |
| 1778080176 | 10° C | 46% | 1018.7 hPa | 0 mm | - | - | - |
| 1778079876 | 10.56° C | 44% | 1018.6 hPa | 0 mm | - | - | - |
| 1778079576 | 10° C | 48% | 1018.7 hPa | 0 mm | - | - | - |
| 1778079276 | 10° C | 46% | 1018.6 hPa | 0 mm | - | - | - |
| 1778078976 | 10° C | 45% | 1018.6 hPa | 0 mm | - | - | - |
| 1778078676 | 10° C | 44% | 1018.6 hPa | 0 mm | - | - | - |
| 1778078376 | 10° C | 44% | 1018.6 hPa | 0 mm | - | - | - |
| 1778078076 | 10° C | 51% | 1018.7 hPa | 0 mm | - | - | - |
* Rain latest hour (hover to see other rain measurements)
** Current wind speed in m/s (hover to see current wind gust speed)